Location: Unspecified
(47.9110°N, 14.3980°E)
Time: 06:49:38
(UTC+00:00)

SL-08 R/B - Pass Details

Date: 06 August 2020
Orbit: 951 x 1018 km, 82.9° (Epoch: 27 September)

Event Time Altitude Azimuth Distance (km) Brightness Sun altitude
Rises 19:18:33 0° 181° (S) 3,679 7.2 -7.9°
Reaches altitude 10° 19:21:05 10° 180° (S) 2,725 6.5 -8.2°
Maximum altitude 19:27:18 76° 96° (E) 1,001 4.5 -9.0°
Drops below altitude 10° 19:33:28 10° 12° (NNE) 2,703 7.2 -9.9°
Sets 19:35:58 0° 11° (N) 3,647 7.9 -10.2°
